Location: Palombina Nuova
(43.6167°N, 13.4000°E)
Time: 05:32:46
(UTC+00:00)

Cosmos 1346 Rocket - Pass Details

Date: 17 February 2020
Orbit: 527 x 552 km, 81.2° (Epoch: 09 April)

Event Time Altitude Azimuth Distance (km) Brightness Sun altitude
Rises 05:22:44 0° 357° (N) 2,688 6.2 -8.0°
Reaches altitude 10° 05:25:01 10° 6° (N) 1,789 5.4 -7.5°
Maximum altitude 05:28:42 38° 75° (ENE) 827 4.4 -6.9°
Drops below altitude 10° 05:32:20 10° 144° (SE) 1,768 6.2 -6.2°
Sets 05:34:34 0° 153° (SSE) 2,651 6.9 -5.8°
